Time,TemperatureF,DewpointF,PressureIn,WindDirection,WindDirectionDegrees,WindSpeedMPH,WindSpeedGustMPH,Humidity,HourlyPrecipIn,Conditions,Clouds,dailyrainin,SolarRadiationWatts/m^2,SoftwareType,DateUTC
2013-03-03 00:00:00,28.8,24.6,30.24,WNW,300,0.0,0.0,84,0.00,,,0.06,0,Wunderground v.1.15,2013-03-03 06:00:00,
2013-03-03 00:05:00,28.9,24.4,30.24,WNW,300,0.0,0.0,83,0.00,,,0.06,0,Wunderground v.1.15,2013-03-03 06:05:00,
2013-03-03 00:11:00,29.0,24.5,30.24,WNW,300,0.0,0.0,83,0.00,,,0.06,0,Wunderground v.1.15,2013-03-03 06:11:00,
2013-03-03 00:16:00,29.1,24.3,30.25,WNW,300,0.0,0.0,82,0.00,,,0.06,0,Wunderground v.1.15,2013-03-03 06:16:00,
2013-03-03 00:21:00,29.2,24.4,30.24,WNW,300,0.0,0.0,82,0.00,,,0.06,0,Wunderground v.1.15,2013-03-03 06:21:00,
2013-03-03 00:26:00,29.2,24.4,30.24,WNW,300,0.0,0.0,82,0.00,,,0.06,0,Wunderground v.1.15,2013-03-03 06:26:00,
2013-03-03 00:32:00,29.2,24.1,30.24,WNW,300,0.0,0.0,81,0.00,,,0.06,0,Wunderground v.1.15,2013-03-03 06:32:00,
2013-03-03 00:37:00,29.2,24.4,30.24,WNW,300,0.0,0.0,82,0.00,,,0.06,0,Wunderground v.1.15,2013-03-03 06:37:00,
2013-03-03 00:42:00,29.1,24.3,30.24,WNW,300,0.0,0.0,82,0.00,,,0.06,0,Wunderground v.1.15,2013-03-03 06:42:00,
2013-03-03 00:48:00,29.0,24.2,30.24,WNW,300,0.0,0.0,82,0.00,,,0.06,0,Wunderground v.1.15,2013-03-03 06:48:00,
2013-03-03 00:53:00,29.0,24.2,30.24,WNW,300,0.0,0.0,82,0.00,,,0.06,0,Wunderground v.1.15,2013-03-03 06:53:00,
2013-03-03 00:58:00,28.9,24.4,30.24,WNW,300,0.0,0.0,83,0.00,,,0.06,0,Wunderground v.1.15,2013-03-03 06:58:00,
2013-03-03 01:03:00,28.9,24.4,30.24,WNW,300,0.0,0.0,83,0.00,,,0.06,0,Wunderground v.1.15,2013-03-03 07:03:00,
2013-03-03 01:09:00,28.8,24.3,30.23,WNW,300,0.0,0.0,83,0.00,,,0.06,0,Wunderground v.1.15,2013-03-03 07:09:00,
2013-03-03 01:14:00,28.7,24.2,30.23,WNW,300,0.0,0.0,83,0.00,,,0.06,0,Wunderground v.1.15,2013-03-03 07:14:00,
2013-03-03 01:19:00,28.6,24.1,30.23,WNW,300,0.0,0.0,83,0.00,,,0.06,0,Wunderground v.1.15,2013-03-03 07:19:00,
2013-03-03 01:24:00,28.7,24.5,30.23,WNW,300,0.0,0.0,84,0.00,,,0.06,0,Wunderground v.1.15,2013-03-03 07:24:00,
2013-03-03 01:30:00,28.6,24.4,30.23,WNW,300,0.0,0.0,84,0.00,,,0.06,0,Wunderground v.1.15,2013-03-03 07:30:00,
2013-03-03 01:35:00,28.6,24.4,30.23,WNW,300,0.0,0.0,84,0.00,,,0.06,0,Wunderground v.1.15,2013-03-03 07:35:00,
2013-03-03 01:40:00,28.6,24.4,30.23,WNW,300,0.0,0.0,84,0.00,,,0.06,0,Wunderground v.1.15,2013-03-03 07:40:00,
2013-03-03 01:46:00,28.6,24.4,30.23,WNW,300,0.0,0.0,84,0.00,,,0.06,0,Wunderground v.1.15,2013-03-03 07:46:00,
2013-03-03 01:52:00,28.5,24.0,30.23,WNW,300,0.0,0.0,83,0.00,,,0.06,0,Wunderground v.1.15,2013-03-03 07:52:00,
2013-03-03 01:57:00,28.4,23.9,30.22,WNW,300,0.0,0.0,83,0.00,,,0.06,0,Wunderground v.1.15,2013-03-03 07:57:00,
2013-03-03 02:02:00,28.2,24.0,30.22,WNW,300,0.0,0.0,84,0.00,,,0.06,0,Wunderground v.1.15,2013-03-03 08:02:00,
2013-03-03 02:08:00,28.0,23.8,30.22,WNW,300,0.0,0.0,84,0.00,,,0.06,0,Wunderground v.1.15,2013-03-03 08:08:00,
2013-03-03 02:13:00,27.9,24.0,30.22,WNW,300,0.0,0.0,85,0.00,,,0.06,0,Wunderground v.1.15,2013-03-03 08:13:00,
2013-03-03 02:18:00,27.8,23.9,30.22,WNW,300,0.0,0.0,85,0.00,,,0.06,0,Wunderground v.1.15,2013-03-03 08:18:00,
2013-03-03 02:23:00,27.7,23.8,30.22,WNW,300,0.0,0.0,85,0.00,,,0.06,0,Wunderground v.1.15,2013-03-03 08:23:00,
2013-03-03 02:29:00,27.7,23.8,30.22,WNW,300,0.0,0.0,85,0.00,,,0.06,0,Wunderground v.1.15,2013-03-03 08:29:00,
2013-03-03 02:34:00,27.6,24.0,30.22,WNW,300,0.0,0.0,86,0.00,,,0.06,0,Wunderground v.1.15,2013-03-03 08:34:00,
2013-03-03 02:39:00,27.5,23.9,30.22,WNW,300,0.0,0.0,86,0.00,,,0.06,0,Wunderground v.1.15,2013-03-03 08:39:00,
2013-03-03 02:44:00,27.3,23.7,30.22,WNW,300,0.0,0.0,86,0.00,,,0.06,0,Wunderground v.1.15,2013-03-03 08:44:00,
2013-03-03 02:49:00,27.1,23.7,30.22,WNW,300,0.0,0.0,87,0.00,,,0.06,0,Wunderground v.1.15,2013-03-03 08:49:00,
2013-03-03 02:55:00,26.9,23.8,30.22,WNW,300,0.0,0.0,88,0.00,,,0.06,0,Wunderground v.1.15,2013-03-03 08:55:00,
2013-03-03 03:00:00,26.8,23.7,30.22,WNW,300,0.0,0.0,88,0.00,,,0.06,0,Wunderground v.1.15,2013-03-03 09:00:00,
2013-03-03 03:05:00,26.7,23.6,30.22,WNW,300,0.0,0.0,88,0.00,,,0.06,0,Wunderground v.1.15,2013-03-03 09:05:00,
2013-03-03 03:10:00,26.5,23.7,30.22,WNW,300,0.0,0.0,89,0.00,,,0.06,0,Wunderground v.1.15,2013-03-03 09:10:00,
2013-03-03 03:15:00,26.5,23.7,30.22,WNW,300,0.0,0.0,89,0.00,,,0.06,0,Wunderground v.1.15,2013-03-03 09:15:00,
2013-03-03 03:21:00,26.5,23.7,30.22,WNW,300,0.0,0.0,89,0.00,,,0.06,0,Wunderground v.1.15,2013-03-03 09:21:00,
2013-03-03 03:26:00,26.6,23.8,30.23,WNW,300,0.0,0.0,89,0.00,,,0.06,0,Wunderground v.1.15,2013-03-03 09:26:00,
2013-03-03 03:31:00,26.6,23.5,30.23,WNW,300,0.0,0.0,88,0.00,,,0.06,0,Wunderground v.1.15,2013-03-03 09:31:00,
2013-03-03 03:36:00,26.7,23.6,30.23,WNW,300,0.0,0.0,88,0.00,,,0.06,0,Wunderground v.1.15,2013-03-03 09:36:00,
2013-03-03 03:41:00,26.7,23.6,30.23,WNW,300,0.0,0.0,88,0.00,,,0.06,0,Wunderground v.1.15,2013-03-03 09:41:00,
2013-03-03 03:47:00,26.7,23.6,30.23,WNW,300,0.0,0.0,88,0.00,,,0.06,0,Wunderground v.1.15,2013-03-03 09:47:00,
2013-03-03 03:52:00,26.7,23.6,30.23,WNW,300,0.0,0.0,88,0.00,,,0.06,0,Wunderground v.1.15,2013-03-03 09:52:00,
2013-03-03 03:57:00,26.7,23.4,30.23,WNW,300,0.0,0.0,87,0.00,,,0.06,0,Wunderground v.1.15,2013-03-03 09:57:00,
2013-03-03 04:02:00,26.7,23.6,30.23,WNW,300,0.0,0.0,88,0.00,,,0.06,0,Wunderground v.1.15,2013-03-03 10:02:00,
2013-03-03 04:08:00,26.6,23.5,30.23,WNW,300,0.0,0.0,88,0.00,,,0.06,0,Wunderground v.1.15,2013-03-03 10:08:00,
2013-03-03 04:13:00,26.5,23.4,30.23,WNW,300,0.0,0.0,88,0.00,,,0.06,0,Wunderground v.1.15,2013-03-03 10:13:00,
2013-03-03 04:18:00,26.5,23.4,30.23,WNW,300,0.0,0.0,88,0.00,,,0.06,0,Wunderground v.1.15,2013-03-03 10:18:00,
2013-03-03 04:24:00,26.4,23.3,30.24,WNW,300,0.0,0.0,88,0.00,,,0.06,0,Wunderground v.1.15,2013-03-03 10:24:00,
2013-03-03 04:29:00,26.3,23.2,30.24,WNW,300,0.0,0.0,88,0.00,,,0.06,0,Wunderground v.1.15,2013-03-03 10:29:00,
2013-03-03 04:34:00,26.3,23.2,30.23,WNW,300,0.0,0.0,88,0.00,,,0.06,0,Wunderground v.1.15,2013-03-03 10:34:00,
2013-03-03 04:39:00,26.3,23.2,30.24,WNW,300,0.0,0.0,88,0.00,,,0.06,0,Wunderground v.1.15,2013-03-03 10:39:00,
2013-03-03 04:45:00,26.3,23.2,30.24,WNW,300,0.0,0.0,88,0.00,,,0.06,0,Wunderground v.1.15,2013-03-03 10:45:00,
2013-03-03 04:50:00,26.2,23.1,30.24,WNW,300,0.0,0.0,88,0.00,,,0.06,0,Wunderground v.1.15,2013-03-03 10:50:00,
2013-03-03 04:55:00,26.2,23.1,30.24,WNW,300,0.0,0.0,88,0.00,,,0.06,0,Wunderground v.1.15,2013-03-03 10:55:00,
2013-03-03 05:00:00,26.2,23.1,30.24,WNW,300,0.0,0.0,88,0.00,,,0.06,0,Wunderground v.1.15,2013-03-03 11:00:00,
2013-03-03 05:06:00,26.2,23.1,30.24,WNW,300,0.0,0.0,88,0.00,,,0.06,0,Wunderground v.1.15,2013-03-03 11:06:00,
2013-03-03 05:11:00,26.2,23.1,30.24,WNW,300,0.0,0.0,88,0.00,,,0.06,0,Wunderground v.1.15,2013-03-03 11:11:00,
2013-03-03 05:16:00,26.1,23.0,30.23,WNW,300,0.0,0.0,88,0.00,,,0.06,0,Wunderground v.1.15,2013-03-03 11:16:00,
2013-03-03 05:22:00,26.1,23.0,30.24,WNW,300,0.0,0.0,88,0.00,,,0.06,0,Wunderground v.1.15,2013-03-03 11:22:00,
2013-03-03 05:28:00,26.1,23.0,30.24,WNW,300,0.0,0.0,88,0.00,,,0.06,0,Wunderground v.1.15,2013-03-03 11:28:00,
2013-03-03 05:33:00,26.2,23.1,30.24,WNW,300,0.0,0.0,88,0.00,,,0.06,0,Wunderground v.1.15,2013-03-03 11:33:00,
2013-03-03 05:38:00,26.2,23.1,30.25,WNW,300,0.0,0.0,88,0.00,,,0.06,0,Wunderground v.1.15,2013-03-03 11:38:00,
2013-03-03 05:43:00,26.1,23.0,30.25,WNW,300,0.0,0.0,88,0.00,,,0.06,0,Wunderground v.1.15,2013-03-03 11:43:00,
2013-03-03 05:49:00,26.1,23.0,30.25,WNW,300,0.0,0.0,88,0.00,,,0.06,0,Wunderground v.1.15,2013-03-03 11:49:00,
2013-03-03 05:54:00,26.0,22.9,30.25,WNW,300,0.0,0.0,88,0.00,,,0.06,0,Wunderground v.1.15,2013-03-03 11:54:00,
2013-03-03 05:59:00,26.0,22.9,30.25,WNW,300,0.0,0.0,88,0.00,,,0.06,0,Wunderground v.1.15,2013-03-03 11:59:00,
2013-03-03 06:05:00,25.8,23.0,30.25,WNW,300,0.0,0.0,89,0.00,,,0.06,0,Wunderground v.1.15,2013-03-03 12:05:00,
2013-03-03 06:11:00,25.7,22.9,30.25,WNW,300,0.0,0.0,89,0.00,,,0.06,0,Wunderground v.1.15,2013-03-03 12:11:00,
2013-03-03 06:16:00,25.6,22.8,30.25,WNW,300,0.0,0.0,89,0.00,,,0.06,0,Wunderground v.1.15,2013-03-03 12:16:00,
2013-03-03 06:21:00,25.6,22.8,30.26,WNW,300,0.0,0.0,89,0.00,,,0.06,0,Wunderground v.1.15,2013-03-03 12:21:00,
2013-03-03 06:26:00,25.5,22.7,30.26,WNW,300,0.0,0.0,89,0.00,,,0.06,5,Wunderground v.1.15,2013-03-03 12:26:00,
2013-03-03 06:32:00,25.5,22.7,30.26,WNW,300,0.0,0.0,89,0.00,,,0.06,7,Wunderground v.1.15,2013-03-03 12:32:00,
2013-03-03 06:38:00,25.5,22.7,30.27,WNW,300,0.0,0.0,89,0.00,,,0.06,11,Wunderground v.1.15,2013-03-03 12:38:00,
2013-03-03 06:43:00,25.6,22.8,30.26,WNW,300,0.0,0.0,89,0.00,,,0.06,14,Wunderground v.1.15,2013-03-03 12:43:00,
2013-03-03 06:49:00,25.6,22.8,30.27,WNW,300,0.0,0.0,89,0.00,,,0.06,18,Wunderground v.1.15,2013-03-03 12:49:00,
2013-03-03 06:55:00,25.6,22.8,30.27,WNW,300,0.0,0.0,89,0.00,,,0.06,23,Wunderground v.1.15,2013-03-03 12:55:00,
2013-03-03 07:00:00,25.6,22.8,30.27,WNW,300,0.0,0.0,89,0.00,,,0.06,23,Wunderground v.1.15,2013-03-03 13:00:00,
2013-03-03 07:05:00,25.7,22.9,30.27,WNW,300,0.0,0.0,89,0.00,,,0.06,28,Wunderground v.1.15,2013-03-03 13:05:00,
2013-03-03 07:11:00,25.9,23.1,30.27,WNW,300,0.0,0.0,89,0.00,,,0.06,28,Wunderground v.1.15,2013-03-03 13:11:00,
2013-03-03 07:17:00,26.2,23.4,30.27,WNW,300,0.0,0.0,89,0.00,,,0.06,33,Wunderground v.1.15,2013-03-03 13:17:00,
2013-03-03 07:22:00,26.4,23.6,30.27,WNW,300,0.0,1.0,89,0.00,,,0.06,33,Wunderground v.1.15,2013-03-03 13:22:00,
2013-03-03 07:28:00,26.8,23.7,30.27,WNW,300,0.0,1.0,88,0.00,,,0.06,148,Wunderground v.1.15,2013-03-03 13:28:00,
2013-03-03 07:33:00,27.4,23.8,30.27,WNW,300,0.0,0.0,86,0.00,,,0.06,169,Wunderground v.1.15,2013-03-03 13:33:00,
2013-03-03 07:38:00,28.0,23.8,30.27,WNW,300,0.0,0.0,84,0.00,,,0.06,181,Wunderground v.1.15,2013-03-03 13:38:00,
2013-03-03 07:43:00,28.6,24.1,30.27,WNW,300,0.0,0.0,83,0.00,,,0.06,204,Wunderground v.1.15,2013-03-03 13:43:00,
2013-03-03 07:49:00,29.3,24.2,30.27,WNW,300,0.0,0.0,81,0.00,,,0.06,229,Wunderground v.1.15,2013-03-03 13:49:00,
2013-03-03 07:54:00,29.8,24.7,30.27,WNW,300,0.0,0.0,81,0.00,,,0.07,239,Wunderground v.1.15,2013-03-03 13:54:00,
2013-03-03 07:59:00,30.4,24.4,30.27,WNW,300,0.0,0.0,78,0.09,,,0.08,248,Wunderground v.1.15,2013-03-03 13:59:00,
2013-03-03 08:05:00,31.1,24.4,30.28,WNW,303,0.0,0.0,76,0.13,,,0.09,265,Wunderground v.1.15,2013-03-03 14:05:00,
2013-03-03 08:10:00,31.6,24.3,30.28,NW,304,0.0,0.0,74,0.15,,,0.11,281,Wunderground v.1.15,2013-03-03 14:10:00,
2013-03-03 08:15:00,32.1,24.7,30.28,NW,304,0.0,0.0,74,0.16,,,0.12,294,Wunderground v.1.15,2013-03-03 14:15:00,
2013-03-03 08:21:00,32.4,24.4,30.28,NW,304,1.0,1.0,72,0.23,,,0.14,316,Wunderground v.1.15,2013-03-03 14:21:00,
2013-03-03 08:26:00,32.8,24.8,30.28,NW,304,1.0,1.0,72,0.26,,,0.16,332,Wunderground v.1.15,2013-03-03 14:26:00,
2013-03-03 08:31:00,33.2,23.4,30.27,NW,308,1.0,1.0,67,0.27,,,0.19,348,Wunderground v.1.15,2013-03-03 14:31:00,
2013-03-03 08:36:00,33.6,24.2,30.27,NNW,340,0.0,3.0,68,0.26,,,0.21,364,Wunderground v.1.15,2013-03-03 14:36:00,
2013-03-03 08:41:00,33.9,23.7,30.27,NNW,340,0.0,0.0,66,0.26,,,0.23,378,Wunderground v.1.15,2013-03-03 14:41:00,
2013-03-03 08:47:00,34.4,23.5,30.27,NW,322,0.0,0.0,64,0.27,,,0.26,397,Wunderground v.1.15,2013-03-03 14:47:00,
2013-03-03 08:53:00,34.6,22.9,30.27,NW,322,1.0,1.0,62,0.18,,,0.28,415,Wunderground v.1.15,2013-03-03 14:53:00,
2013-03-03 08:58:00,35.0,23.7,30.27,NNE,22,1.0,3.0,63,0.19,,,0.29,431,Wunderground v.1.15,2013-03-03 14:58:00,
2013-03-03 09:03:00,35.3,23.2,30.27,ENE,58,1.0,3.0,61,0.22,,,0.31,446,Wunderground v.1.15,2013-03-03 15:03:00,
2013-03-03 09:08:00,35.7,23.6,30.27,NE,41,1.0,3.0,61,0.20,,,0.33,464,Wunderground v.1.15,2013-03-03 15:08:00,
2013-03-03 09:14:00,35.9,23.4,30.27,North,10,1.0,2.0,60,0.18,,,0.34,480,Wunderground v.1.15,2013-03-03 15:14:00,
2013-03-03 09:19:00,36.0,22.6,30.27,NNW,331,1.0,5.0,58,0.16,,,0.36,496,Wunderground v.1.15,2013-03-03 15:19:00,
2013-03-03 09:24:00,36.0,22.6,30.27,NW,314,2.0,5.0,58,0.16,,,0.37,510,Wunderground v.1.15,2013-03-03 15:24:00,
2013-03-03 09:29:00,36.2,23.2,30.28,NW,315,2.0,5.0,59,0.14,,,0.38,522,Wunderground v.1.15,2013-03-03 15:29:00,
2013-03-03 09:35:00,36.5,23.1,30.27,NW,315,1.0,3.0,58,0.14,,,0.40,538,Wunderground v.1.15,2013-03-03 15:35:00,
2013-03-03 09:40:00,36.9,22.7,30.27,NNW,345,2.0,2.0,56,0.15,,,0.41,554,Wunderground v.1.15,2013-03-03 15:40:00,
2013-03-03 09:46:00,37.5,23.2,30.27,NNW,345,1.0,2.0,56,0.13,,,0.42,568,Wunderground v.1.15,2013-03-03 15:46:00,
2013-03-03 09:52:00,38.0,23.7,30.26,NNW,345,0.0,1.0,56,0.13,,,0.43,585,Wunderground v.1.15,2013-03-03 15:52:00,
2013-03-03 09:57:00,38.4,24.1,30.26,NNW,345,0.0,2.0,56,0.13,,,0.45,598,Wunderground v.1.15,2013-03-03 15:57:00,
2013-03-03 10:02:00,38.8,23.6,30.26,NNE,22,1.0,3.0,54,0.12,,,0.46,612,Wunderground v.1.15,2013-03-03 16:02:00,
2013-03-03 10:07:00,38.9,23.2,30.26,West,269,1.0,4.0,53,0.11,,,0.46,622,Wunderground v.1.15,2013-03-03 16:07:00,
2013-03-03 10:13:00,38.9,22.8,30.26,West,264,2.0,6.0,52,0.11,,,0.47,635,Wunderground v.1.15,2013-03-03 16:13:00,
2013-03-03 10:18:00,39.5,24.2,30.25,West,260,2.0,6.0,54,0.11,,,0.48,642,Wunderground v.1.15,2013-03-03 16:18:00,
2013-03-03 10:23:00,40.2,24.4,30.26,NW,326,1.0,5.0,53,0.09,,,0.49,656,Wunderground v.1.15,2013-03-03 16:23:00,
2013-03-03 10:28:00,40.2,23.5,30.26,NNW,342,2.0,7.0,51,0.11,,,0.50,666,Wunderground v.1.15,2013-03-03 16:28:00,
2013-03-03 10:33:00,40.5,24.7,30.26,NNW,343,2.0,2.0,53,0.09,,,0.51,671,Wunderground v.1.15,2013-03-03 16:33:00,
2013-03-03 10:39:00,41.1,24.3,30.25,NNE,32,0.0,2.0,51,0.10,,,0.52,684,Wunderground v.1.15,2013-03-03 16:39:00,
2013-03-03 10:44:00,41.1,23.9,30.25,NW,323,1.0,3.0,50,0.09,,,0.52,693,Wunderground v.1.15,2013-03-03 16:44:00,
2013-03-03 10:49:00,41.2,23.5,30.25,West,266,1.0,6.0,49,0.08,,,0.53,701,Wunderground v.1.15,2013-03-03 16:49:00,
2013-03-03 10:54:00,41.4,23.2,30.25,NNW,337,1.0,1.0,48,0.09,,,0.54,710,Wunderground v.1.15,2013-03-03 16:54:00,
2013-03-03 10:59:00,41.7,22.9,30.24,North,5,2.0,8.0,47,0.08,,,0.55,714,Wunderground v.1.15,2013-03-03 16:59:00,
2013-03-03 11:05:00,42.2,22.9,30.24,NW,313,2.0,3.0,46,0.08,,,0.55,728,Wunderground v.1.15,2013-03-03 17:05:00,
2013-03-03 11:11:00,42.5,21.5,30.24,NE,36,1.0,1.0,43,0.08,,,0.56,733,Wunderground v.1.15,2013-03-03 17:11:00,
2013-03-03 11:16:00,42.8,21.8,30.24,NE,35,1.0,1.0,43,0.06,,,0.57,744,Wunderground v.1.15,2013-03-03 17:16:00,
2013-03-03 11:21:00,43.2,22.2,30.23,WNW,302,0.0,0.0,43,0.06,,,0.57,747,Wunderground v.1.15,2013-03-03 17:21:00,
2013-03-03 11:26:00,43.1,23.2,30.23,WSW,252,0.0,0.0,45,0.08,,,0.58,749,Wunderground v.1.15,2013-03-03 17:26:00,
2013-03-03 11:32:00,43.3,24.4,30.23,SW,215,0.0,0.0,47,0.07,,,0.59,754,Wunderground v.1.15,2013-03-03 17:32:00,
2013-03-03 11:37:00,43.7,23.2,30.23,WNW,291,0.0,5.0,44,0.07,,,0.59,758,Wunderground v.1.15,2013-03-03 17:37:00,
2013-03-03 11:42:00,44.3,24.3,30.22,NE,40,0.0,3.0,45,0.07,,,0.60,763,Wunderground v.1.15,2013-03-03 17:42:00,
2013-03-03 11:47:00,44.3,22.6,30.22,WSW,254,1.0,3.0,42,0.07,,,0.00,770,Wunderground v.1.15,2013-03-03 17:47:00,
2013-03-03 11:53:00,44.5,22.8,30.22,NW,326,0.0,7.0,42,0.07,,,0.01,772,Wunderground v.1.15,2013-03-03 17:53:00,
2013-03-03 11:59:00,45.0,22.1,30.22,SW,223,1.0,7.0,40,0.06,,,0.02,773,Wunderground v.1.15,2013-03-03 17:59:00,
2013-03-03 12:04:00,45.8,22.8,30.22,North,357,0.0,3.0,40,0.06,,,0.02,775,Wunderground v.1.15,2013-03-03 18:04:00,
2013-03-03 12:10:00,46.3,23.3,30.21,WNW,295,1.0,2.0,40,0.08,,,0.03,779,Wunderground v.1.15,2013-03-03 18:10:00,
2013-03-03 12:16:00,46.4,23.9,30.21,NW,310,2.0,6.0,41,0.07,,,0.04,779,Wunderground v.1.15,2013-03-03 18:16:00,
2013-03-03 12:21:00,46.3,22.7,30.21,NNW,337,2.0,3.0,39,0.07,,,0.04,779,Wunderground v.1.15,2013-03-03 18:21:00,
2013-03-03 12:26:00,46.4,23.4,30.21,WNW,300,2.0,3.0,40,0.08,,,0.05,784,Wunderground v.1.15,2013-03-03 18:26:00,
2013-03-03 12:31:00,46.7,23.6,30.21,WNW,302,1.0,11.0,40,0.08,,,0.06,775,Wunderground v.1.15,2013-03-03 18:31:00,
2013-03-03 12:37:00,46.9,22.6,30.20,North,354,2.0,11.0,38,0.08,,,0.06,777,Wunderground v.1.15,2013-03-03 18:37:00,
2013-03-03 12:43:00,46.9,22.6,30.19,NNE,27,2.0,4.0,38,0.08,,,0.07,777,Wunderground v.1.15,2013-03-03 18:43:00,
2013-03-03 12:48:00,46.8,22.5,30.19,NNW,327,3.0,8.0,38,0.07,,,0.08,779,Wunderground v.1.15,2013-03-03 18:48:00,
2013-03-03 12:53:00,47.1,22.1,30.19,West,271,3.0,8.0,37,0.07,,,0.08,773,Wunderground v.1.15,2013-03-03 18:53:00,
2013-03-03 12:58:00,47.7,23.3,30.19,WNW,302,3.0,11.0,38,0.08,,,0.09,772,Wunderground v.1.15,2013-03-03 18:58:00,
2013-03-03 13:03:00,47.8,22.1,30.19,NNW,343,4.0,8.0,36,0.07,,,0.09,768,Wunderground v.1.15,2013-03-03 19:03:00,
2013-03-03 13:09:00,48.1,24.3,30.18,NE,42,2.0,8.0,39,0.06,,,0.10,765,Wunderground v.1.15,2013-03-03 19:09:00,
2013-03-03 13:14:00,48.3,23.2,30.18,West,264,2.0,8.0,37,0.07,,,0.11,758,Wunderground v.1.15,2013-03-03 19:14:00,
2013-03-03 13:19:00,48.6,24.1,30.18,SW,218,2.0,8.0,38,0.07,,,0.11,752,Wunderground v.1.15,2013-03-03 19:19:00,
2013-03-03 13:25:00,49.2,24.0,30.18,WSW,252,1.0,6.0,37,0.06,,,0.12,749,Wunderground v.1.15,2013-03-03 19:25:00,
2013-03-03 13:30:00,49.5,22.9,30.18,WNW,299,2.0,2.0,35,0.06,,,0.12,740,Wunderground v.1.15,2013-03-03 19:30:00,
2013-03-03 13:35:00,49.6,23.7,30.17,NW,312,2.0,2.0,36,0.07,,,0.13,735,Wunderground v.1.15,2013-03-03 19:35:00,
2013-03-03 13:41:00,49.4,22.9,30.17,WNW,295,3.0,3.0,35,0.06,,,0.14,729,Wunderground v.1.15,2013-03-03 19:41:00,
2013-03-03 13:46:00,49.4,23.5,30.17,West,262,2.0,4.0,36,0.06,,,0.14,728,Wunderground v.1.15,2013-03-03 19:46:00,
2013-03-03 13:51:00,50.0,22.7,30.17,WNW,284,2.0,7.0,34,0.07,,,0.15,717,Wunderground v.1.15,2013-03-03 19:51:00,
2013-03-03 13:57:00,50.2,24.2,30.17,WNW,282,2.0,7.0,36,0.07,,,0.15,707,Wunderground v.1.15,2013-03-03 19:57:00,
2013-03-03 14:02:00,50.3,24.3,30.17,WNW,289,1.0,2.0,36,0.05,,,0.16,649,Wunderground v.1.15,2013-03-03 20:02:00,
2013-03-03 14:07:00,50.4,23.1,30.17,NNW,330,1.0,8.0,34,0.05,,,0.16,691,Wunderground v.1.15,2013-03-03 20:07:00,
2013-03-03 14:12:00,50.5,23.1,30.17,West,271,1.0,7.0,34,0.06,,,0.17,661,Wunderground v.1.15,2013-03-03 20:12:00,
2013-03-03 14:18:00,50.9,24.9,30.17,WNW,294,2.0,8.0,36,0.06,,,0.17,659,Wunderground v.1.15,2013-03-03 20:18:00,
2013-03-03 14:23:00,51.1,24.4,30.16,SSW,210,2.0,3.0,35,0.05,,,0.17,664,Wunderground v.1.15,2013-03-03 20:23:00,
2013-03-03 14:28:00,51.5,24.0,30.16,NNW,335,1.0,5.0,34,0.05,,,0.18,652,Wunderground v.1.15,2013-03-03 20:28:00,
2013-03-03 14:33:00,51.6,23.4,30.16,West,276,2.0,8.0,33,0.05,,,0.18,638,Wunderground v.1.15,2013-03-03 20:33:00,
2013-03-03 14:39:00,51.6,23.4,30.16,NW,315,3.0,8.0,33,0.06,,,0.19,624,Wunderground v.1.15,2013-03-03 20:39:00,
2013-03-03 14:44:00,51.6,23.4,30.16,NW,320,3.0,10.0,33,0.06,,,0.19,612,Wunderground v.1.15,2013-03-03 20:44:00,
2013-03-03 14:49:00,51.9,25.1,30.16,NW,321,1.0,10.0,35,0.05,,,0.20,598,Wunderground v.1.15,2013-03-03 20:49:00,
2013-03-03 14:54:00,51.8,24.3,30.16,WSW,249,2.0,9.0,34,0.05,,,0.20,584,Wunderground v.1.15,2013-03-03 20:54:00,
2013-03-03 14:59:00,51.9,23.7,30.16,WNW,288,3.0,9.0,33,0.05,,,0.21,571,Wunderground v.1.15,2013-03-03 20:59:00,
2013-03-03 15:05:00,52.1,24.6,30.16,NNW,329,1.0,3.0,34,0.05,,,0.21,557,Wunderground v.1.15,2013-03-03 21:05:00,
2013-03-03 15:10:00,52.3,24.0,30.15,WNW,285,2.0,6.0,33,0.05,,,0.21,545,Wunderground v.1.15,2013-03-03 21:10:00,
2013-03-03 15:15:00,52.2,24.6,30.15,NW,311,3.0,6.0,34,0.04,,,0.22,533,Wunderground v.1.15,2013-03-03 21:15:00,
2013-03-03 15:20:00,52.5,25.6,30.14,WNW,303,1.0,1.0,35,0.04,,,0.22,519,Wunderground v.1.15,2013-03-03 21:20:00,
2013-03-03 15:25:00,53.2,24.8,30.14,North,350,0.0,2.0,33,0.04,,,0.22,501,Wunderground v.1.15,2013-03-03 21:25:00,
2013-03-03 15:31:00,53.2,24.8,30.14,WNW,294,1.0,5.0,33,0.05,,,0.23,483,Wunderground v.1.15,2013-03-03 21:31:00,
2013-03-03 15:36:00,53.0,24.6,30.14,WSW,256,2.0,9.0,33,0.05,,,0.23,468,Wunderground v.1.15,2013-03-03 21:36:00,
2013-03-03 15:42:00,52.8,24.5,30.14,WNW,283,2.0,3.0,33,0.04,,,0.23,445,Wunderground v.1.15,2013-03-03 21:42:00,
2013-03-03 15:47:00,52.8,24.5,30.13,NNW,339,1.0,3.0,33,0.00,,,0.24,429,Wunderground v.1.15,2013-03-03 21:47:00,
2013-03-03 15:52:00,52.9,25.3,30.13,West,278,2.0,2.0,34,0.00,,,0.24,411,Wunderground v.1.15,2013-03-03 21:52:00,
2013-03-03 15:58:00,53.5,25.8,30.13,WSW,245,1.0,2.0,34,0.00,,,0.24,387,Wunderground v.1.15,2013-03-03 21:58:00,
2013-03-03 16:03:00,53.7,26.0,30.13,West,266,1.0,5.0,34,0.04,,,0.25,369,Wunderground v.1.15,2013-03-03 22:03:00,
2013-03-03 16:08:00,54.1,25.6,30.13,West,265,1.0,5.0,33,0.04,,,0.25,350,Wunderground v.1.15,2013-03-03 22:08:00,
2013-03-03 16:13:00,53.9,26.1,30.13,NW,321,1.0,1.0,34,0.04,,,0.25,334,Wunderground v.1.15,2013-03-03 22:13:00,
2013-03-03 16:19:00,53.8,26.1,30.13,West,259,1.0,4.0,34,0.00,,,0.26,311,Wunderground v.1.15,2013-03-03 22:19:00,
2013-03-03 16:24:00,53.9,25.4,30.13,West,259,0.0,0.0,33,0.00,,,0.26,283,Wunderground v.1.15,2013-03-03 22:24:00,
2013-03-03 16:29:00,53.9,26.8,30.13,NW,305,0.0,0.0,35,0.00,,,0.26,262,Wunderground v.1.15,2013-03-03 22:29:00,
2013-03-03 16:35:00,54.1,27.0,30.13,NW,318,0.0,0.0,35,0.04,,,0.27,241,Wunderground v.1.15,2013-03-03 22:35:00,
2013-03-03 16:41:00,54.1,27.0,30.13,NW,316,0.0,0.0,35,0.04,,,0.27,220,Wunderground v.1.15,2013-03-03 22:41:00,
2013-03-03 16:46:00,54.0,26.2,30.13,WNW,296,0.0,1.0,34,0.04,,,0.27,204,Wunderground v.1.15,2013-03-03 22:46:00,
2013-03-03 16:51:00,54.1,27.0,30.13,WNW,296,0.0,0.0,35,0.04,,,0.27,183,Wunderground v.1.15,2013-03-03 22:51:00,
2013-03-03 16:56:00,54.1,27.0,30.13,WNW,296,0.0,1.0,35,0.00,,,0.28,167,Wunderground v.1.15,2013-03-03 22:56:00,
2013-03-03 17:01:00,54.2,26.4,30.12,West,267,0.0,4.0,34,0.00,,,0.28,146,Wunderground v.1.15,2013-03-03 23:01:00,
2013-03-03 17:07:00,54.2,27.1,30.12,West,267,0.0,4.0,35,0.00,,,0.28,123,Wunderground v.1.15,2013-03-03 23:07:00,
2013-03-03 17:12:00,54.1,27.0,30.13,West,267,0.0,0.0,35,0.04,,,0.29,100,Wunderground v.1.15,2013-03-03 23:12:00,
2013-03-03 17:17:00,53.8,26.8,30.13,West,266,0.0,0.0,35,0.04,,,0.29,37,Wunderground v.1.15,2013-03-03 23:17:00,
2013-03-03 17:22:00,53.5,27.2,30.12,West,266,0.0,0.0,36,0.04,,,0.29,33,Wunderground v.1.15,2013-03-03 23:22:00,
2013-03-03 17:27:00,53.4,27.8,30.12,West,266,0.0,0.0,37,0.00,,,0.29,39,Wunderground v.1.15,2013-03-03 23:27:00,
2013-03-03 17:33:00,53.2,26.9,30.12,West,264,0.0,0.0,36,0.00,,,0.30,26,Wunderground v.1.15,2013-03-03 23:33:00,
2013-03-03 17:38:00,52.9,26.0,30.13,West,264,0.0,0.0,35,0.00,,,0.30,19,Wunderground v.1.15,2013-03-03 23:38:00,
2013-03-03 17:43:00,52.7,26.5,30.13,West,264,0.0,0.0,36,0.00,,,0.30,16,Wunderground v.1.15,2013-03-03 23:43:00,
2013-03-03 17:48:00,52.4,27.5,30.13,West,264,0.0,0.0,38,0.00,,,0.31,12,Wunderground v.1.15,2013-03-03 23:48:00,
2013-03-03 17:54:00,51.7,27.5,30.12,West,264,0.0,0.0,39,0.00,,,0.31,9,Wunderground v.1.15,2013-03-03 23:54:00,
2013-03-03 17:59:00,51.0,28.1,30.13,West,264,0.0,0.0,41,0.00,,,0.31,5,Wunderground v.1.15,2013-03-03 23:59:00,
2013-03-03 18:04:00,50.3,28.6,30.13,West,264,0.0,0.0,43,0.00,,,0.31,0,Wunderground v.1.15,2013-03-04 00:04:00,
2013-03-03 18:09:00,49.5,28.5,30.13,West,264,0.0,0.0,44,0.00,,,0.31,0,Wunderground v.1.15,2013-03-04 00:09:00,
2013-03-03 18:15:00,48.8,30.0,30.13,West,264,0.0,0.0,48,0.00,,,0.32,0,Wunderground v.1.15,2013-03-04 00:15:00,
2013-03-03 18:20:00,48.1,28.8,30.13,West,264,0.0,0.0,47,0.00,,,0.32,0,Wunderground v.1.15,2013-03-04 00:20:00,
2013-03-03 18:25:00,47.6,29.4,30.13,West,264,0.0,0.0,49,0.00,,,0.32,0,Wunderground v.1.15,2013-03-04 00:25:00,
2013-03-03 18:30:00,47.1,29.4,30.13,West,264,0.0,0.0,50,0.00,,,0.32,0,Wunderground v.1.15,2013-03-04 00:30:00,
2013-03-03 18:36:00,46.6,29.4,30.13,West,264,0.0,0.0,51,0.00,,,0.33,0,Wunderground v.1.15,2013-03-04 00:36:00,
2013-03-03 18:41:00,46.3,29.1,30.13,West,264,0.0,0.0,51,0.00,,,0.33,0,Wunderground v.1.15,2013-03-04 00:41:00,
2013-03-03 18:46:00,46.0,31.6,30.13,West,264,0.0,0.0,57,0.00,,,0.33,0,Wunderground v.1.15,2013-03-04 00:46:00,
2013-03-03 18:51:00,45.7,31.3,30.13,West,264,0.0,0.0,57,0.00,,,0.33,0,Wunderground v.1.15,2013-03-04 00:51:00,
2013-03-03 18:56:00,45.6,29.4,30.13,West,264,0.0,0.0,53,0.00,,,0.33,0,Wunderground v.1.15,2013-03-04 00:56:00,
2013-03-03 19:02:00,45.6,29.9,30.13,West,264,0.0,0.0,54,0.00,,,0.33,0,Wunderground v.1.15,2013-03-04 01:02:00,
2013-03-03 19:07:00,45.6,30.8,30.13,West,264,0.0,0.0,56,0.00,,,0.34,0,Wunderground v.1.15,2013-03-04 01:07:00,
2013-03-03 19:12:00,45.5,29.3,30.13,West,264,0.0,0.0,53,0.00,,,0.34,0,Wunderground v.1.15,2013-03-04 01:12:00,
2013-03-03 19:17:00,45.6,29.4,30.13,West,264,0.0,0.0,53,0.00,,,0.34,0,Wunderground v.1.15,2013-03-04 01:17:00,
2013-03-03 19:22:00,45.8,29.2,30.13,West,264,0.0,0.0,52,0.00,,,0.34,0,Wunderground v.1.15,2013-03-04 01:22:00,
2013-03-03 19:28:00,45.8,29.2,30.13,West,264,0.0,0.0,52,0.00,,,0.34,0,Wunderground v.1.15,2013-03-04 01:28:00,
2013-03-03 19:33:00,45.9,29.7,30.13,SSW,211,0.0,0.0,53,0.00,,,0.34,0,Wunderground v.1.15,2013-03-04 01:33:00,
2013-03-03 19:38:00,46.0,30.3,30.13,SSW,192,0.0,2.0,54,0.00,,,0.35,0,Wunderground v.1.15,2013-03-04 01:38:00,
2013-03-03 19:44:00,46.1,29.4,30.13,South,186,0.0,0.0,52,0.00,,,0.35,0,Wunderground v.1.15,2013-03-04 01:44:00,
2013-03-03 19:49:00,46.2,30.5,30.13,South,187,0.0,0.0,54,0.00,,,0.35,0,Wunderground v.1.15,2013-03-04 01:49:00,
2013-03-03 19:54:00,46.1,30.4,30.14,South,187,0.0,0.0,54,0.00,,,0.35,0,Wunderground v.1.15,2013-03-04 01:54:00,
2013-03-03 19:59:00,45.9,30.6,30.13,South,187,0.0,0.0,55,0.00,,,0.35,0,Wunderground v.1.15,2013-03-04 01:59:00,
2013-03-03 20:05:00,45.7,30.0,30.13,South,187,0.0,0.0,54,0.00,,,0.35,0,Wunderground v.1.15,2013-03-04 02:05:00,
2013-03-03 20:10:00,45.5,30.3,30.13,South,187,0.0,0.0,55,0.00,,,0.35,0,Wunderground v.1.15,2013-03-04 02:10:00,
2013-03-03 20:15:00,45.3,30.5,30.13,South,187,0.0,0.0,56,0.00,,,0.36,0,Wunderground v.1.15,2013-03-04 02:15:00,
2013-03-03 20:20:00,45.1,30.3,30.13,South,187,0.0,0.0,56,0.00,,,0.36,0,Wunderground v.1.15,2013-03-04 02:20:00,
2013-03-03 20:26:00,45.0,30.2,30.13,South,187,0.0,0.0,56,0.00,,,0.36,0,Wunderground v.1.15,2013-03-04 02:26:00,
2013-03-03 20:31:00,44.7,30.8,30.13,South,188,0.0,0.0,58,0.00,,,0.36,0,Wunderground v.1.15,2013-03-04 02:31:00,
2013-03-03 20:36:00,44.4,30.5,30.13,South,188,0.0,0.0,58,0.00,,,0.36,0,Wunderground v.1.15,2013-03-04 02:36:00,
2013-03-03 20:41:00,44.2,31.2,30.14,South,188,0.0,0.0,60,0.00,,,0.36,0,Wunderground v.1.15,2013-03-04 02:41:00,
2013-03-03 20:47:00,43.9,30.9,30.13,South,188,0.0,0.0,60,0.00,,,0.36,0,Wunderground v.1.15,2013-03-04 02:47:00,
2013-03-03 20:52:00,43.7,31.1,30.13,South,188,0.0,0.0,61,0.00,,,0.37,0,Wunderground v.1.15,2013-03-04 02:52:00,
2013-03-03 20:57:00,43.5,30.5,30.14,South,188,0.0,0.0,60,0.00,,,0.37,0,Wunderground v.1.15,2013-03-04 02:57:00,
2013-03-03 21:03:00,43.3,30.7,30.14,South,188,0.0,0.0,61,0.00,,,0.37,0,Wunderground v.1.15,2013-03-04 03:03:00,
2013-03-03 21:08:00,43.1,30.6,30.14,South,188,0.0,0.0,61,0.00,,,0.37,0,Wunderground v.1.15,2013-03-04 03:08:00,
2013-03-03 21:13:00,42.9,31.6,30.13,South,188,0.0,0.0,64,0.00,,,0.37,0,Wunderground v.1.15,2013-03-04 03:13:00,
2013-03-03 21:18:00,42.6,31.3,30.13,South,188,0.0,0.0,64,0.00,,,0.37,0,Wunderground v.1.15,2013-03-04 03:18:00,
2013-03-03 21:24:00,42.5,30.8,30.13,South,188,0.0,0.0,63,0.00,,,0.37,0,Wunderground v.1.15,2013-03-04 03:24:00,
2013-03-03 21:29:00,42.5,31.2,30.13,South,188,0.0,0.0,64,0.00,,,0.37,0,Wunderground v.1.15,2013-03-04 03:29:00,
2013-03-03 21:34:00,42.4,30.7,30.13,South,188,0.0,0.0,63,0.00,,,0.38,0,Wunderground v.1.15,2013-03-04 03:34:00,
2013-03-03 21:39:00,42.4,30.7,30.13,South,188,0.0,0.0,63,0.00,,,0.38,0,Wunderground v.1.15,2013-03-04 03:39:00,
2013-03-03 21:45:00,42.3,31.4,30.13,South,188,0.0,0.0,65,0.00,,,0.38,0,Wunderground v.1.15,2013-03-04 03:45:00,
2013-03-03 21:50:00,42.2,31.3,30.13,South,188,0.0,0.0,65,0.00,,,0.38,0,Wunderground v.1.15,2013-03-04 03:50:00,
2013-03-03 21:55:00,42.3,31.0,30.13,South,190,0.0,0.0,64,0.00,,,0.38,0,Wunderground v.1.15,2013-03-04 03:55:00,
2013-03-03 22:00:00,42.3,31.4,30.13,South,190,0.0,0.0,65,0.00,,,0.38,0,Wunderground v.1.15,2013-03-04 04:00:00,
2013-03-03 22:05:00,42.3,31.0,30.13,South,190,0.0,0.0,64,0.00,,,0.38,0,Wunderground v.1.15,2013-03-04 04:05:00,
2013-03-03 22:11:00,42.5,30.8,30.12,South,170,0.0,0.0,63,0.00,,,0.38,0,Wunderground v.1.15,2013-03-04 04:11:00,
2013-03-03 22:16:00,42.6,31.3,30.13,South,170,0.0,0.0,64,0.00,,,0.38,0,Wunderground v.1.15,2013-03-04 04:16:00,
2013-03-03 22:21:00,42.6,30.9,30.13,South,171,0.0,0.0,63,0.00,,,0.38,0,Wunderground v.1.15,2013-03-04 04:21:00,
2013-03-03 22:27:00,42.7,30.6,30.12,SSW,192,0.0,0.0,62,0.00,,,0.39,0,Wunderground v.1.15,2013-03-04 04:27:00,
2013-03-03 22:32:00,42.8,31.1,30.12,SSW,192,0.0,0.0,63,0.00,,,0.39,0,Wunderground v.1.15,2013-03-04 04:32:00,
2013-03-03 22:38:00,42.8,31.1,30.12,SSE,154,0.0,0.0,63,0.00,,,0.39,0,Wunderground v.1.15,2013-03-04 04:38:00,
2013-03-03 22:43:00,42.7,31.4,30.12,SSW,195,0.0,0.0,64,0.00,,,0.39,0,Wunderground v.1.15,2013-03-04 04:43:00,
2013-03-03 22:48:00,42.7,30.6,30.12,SSW,192,0.0,0.0,62,0.00,,,0.39,0,Wunderground v.1.15,2013-03-04 04:48:00,
2013-03-03 22:53:00,42.7,30.2,30.11,South,188,0.0,0.0,61,0.00,,,0.39,0,Wunderground v.1.15,2013-03-04 04:53:00,
2013-03-03 22:58:00,42.8,30.3,30.11,South,189,0.0,0.0,61,0.00,,,0.39,0,Wunderground v.1.15,2013-03-04 04:58:00,
2013-03-03 23:00:00,42.8,30.7,30.11,South,181,0.0,0.0,62,0.00,,,0.39,0,Wunderground v.1.15,2013-03-04 05:00:00,
2013-03-03 23:01:00,42.9,30.4,30.11,South,181,0.0,0.0,61,0.00,,,0.39,0,Wunderground v.1.15,2013-03-04 05:01:00,
2013-03-03 23:02:00,42.9,30.4,30.11,South,185,0.0,0.0,61,0.00,,,0.39,0,Wunderground v.1.15,2013-03-04 05:02:00,
2013-03-03 23:04:00,43.0,30.9,30.11,South,188,0.0,0.0,62,0.00,,,0.39,0,Wunderground v.1.15,2013-03-04 05:04:00,
2013-03-03 23:09:00,43.0,30.9,30.11,South,181,0.0,5.0,62,0.00,,,0.39,0,Wunderground v.1.15,2013-03-04 05:09:00,
2013-03-03 23:14:00,43.0,31.3,30.10,South,177,1.0,3.0,63,0.00,,,0.40,0,Wunderground v.1.15,2013-03-04 05:14:00,
2013-03-03 23:20:00,43.0,31.3,30.10,SSW,202,0.0,0.0,63,0.00,,,0.40,0,Wunderground v.1.15,2013-03-04 05:20:00,
2013-03-03 23:25:00,42.9,31.2,30.10,SSW,202,0.0,0.0,63,0.00,,,0.40,0,Wunderground v.1.15,2013-03-04 05:25:00,
2013-03-03 23:30:00,42.8,31.5,30.10,SSW,206,0.0,6.0,64,0.00,,,0.40,0,Wunderground v.1.15,2013-03-04 05:30:00,
2013-03-03 23:35:00,42.7,31.4,30.10,SSW,198,0.0,6.0,64,0.00,,,0.40,0,Wunderground v.1.15,2013-03-04 05:35:00,
2013-03-03 23:41:00,42.6,31.7,30.10,South,182,0.0,3.0,65,0.00,,,0.40,0,Wunderground v.1.15,2013-03-04 05:41:00,
2013-03-03 23:46:00,42.5,31.9,30.10,SSW,200,0.0,3.0,66,0.00,,,0.40,0,Wunderground v.1.15,2013-03-04 05:46:00,
2013-03-03 23:51:00,42.4,31.8,30.10,South,190,0.0,0.0,66,0.00,,,0.40,0,Wunderground v.1.15,2013-03-04 05:51:00,
2013-03-03 23:57:00,42.2,32.0,30.10,South,191,0.0,0.0,67,0.00,,,0.40,0,Wunderground v.1.15,2013-03-04 05:57:00,